Time,TemperatureF,DewpointF,PressureIn,WindDirection,WindDirectionDegrees,WindSpeedMPH,WindSpeedGustMPH,Humidity,HourlyPrecipIn,Conditions,Clouds,dailyrainin,SoftwareType,DateUTC
2013-10-14 00:07:00,51.4,46.0,29.71,WNW,303,0.0,-999.0,81,-99.99,,,0.00,weatherlink.com 1.10,2013-10-14 07:07:00,
2013-10-14 00:22:00,51.0,46.0,29.71,WNW,303,0.0,-999.0,82,-99.99,,,0.00,weatherlink.com 1.10,2013-10-14 07:22:00,
2013-10-14 00:37:00,51.0,46.0,29.71,WNW,303,0.0,-999.0,82,-99.99,,,0.00,weatherlink.com 1.10,2013-10-14 07:37:00,
2013-10-14 00:52:00,50.5,45.0,29.71,WNW,303,0.0,-999.0,81,-99.99,,,0.00,weatherlink.com 1.10,2013-10-14 07:52:00,
2013-10-14 01:07:00,49.8,45.0,29.71,WNW,303,0.0,-999.0,82,-99.99,,,0.00,weatherlink.com 1.10,2013-10-14 08:07:00,
2013-10-14 01:22:00,49.6,44.0,29.71,WNW,303,0.0,-999.0,82,-99.99,,,0.00,weatherlink.com 1.10,2013-10-14 08:22:00,
2013-10-14 01:37:00,50.1,45.0,29.71,WNW,303,0.0,-999.0,81,-99.99,,,0.00,weatherlink.com 1.10,2013-10-14 08:37:00,
2013-10-14 01:52:00,49.9,44.0,29.71,WNW,303,0.0,-999.0,80,-99.99,,,0.00,weatherlink.com 1.10,2013-10-14 08:52:00,
2013-10-14 02:07:00,50.2,44.0,29.71,WNW,303,0.0,-999.0,78,-99.99,,,0.00,weatherlink.com 1.10,2013-10-14 09:07:00,
2013-10-14 02:22:00,49.9,42.0,29.71,WNW,303,0.0,-999.0,75,-99.99,,,0.00,weatherlink.com 1.10,2013-10-14 09:22:00,
2013-10-14 02:37:00,49.4,41.0,29.71,WNW,303,0.0,-999.0,74,-99.99,,,0.00,weatherlink.com 1.10,2013-10-14 09:37:00,
2013-10-14 02:52:00,49.1,41.0,29.71,WNW,303,0.0,-999.0,74,-99.99,,,0.00,weatherlink.com 1.10,2013-10-14 09:52:00,
2013-10-14 03:07:00,49.1,41.0,29.71,WNW,303,0.0,-999.0,74,-99.99,,,0.00,weatherlink.com 1.10,2013-10-14 10:07:00,
2013-10-14 03:22:00,48.3,41.0,29.70,WNW,303,0.0,-999.0,75,-99.99,,,0.00,weatherlink.com 1.10,2013-10-14 10:22:00,
2013-10-14 03:37:00,48.0,40.0,29.70,WNW,303,0.0,-999.0,75,-99.99,,,0.00,weatherlink.com 1.10,2013-10-14 10:37:00,
2013-10-14 03:52:00,48.2,41.0,29.70,WNW,303,0.0,-999.0,75,-99.99,,,0.00,weatherlink.com 1.10,2013-10-14 10:52:00,
2013-10-14 04:07:00,48.3,40.0,29.70,WNW,302,0.0,-999.0,73,-99.99,,,0.00,weatherlink.com 1.10,2013-10-14 11:07:00,
2013-10-14 04:22:00,49.9,39.0,29.70,WNW,302,0.0,-999.0,67,-99.99,,,0.00,weatherlink.com 1.10,2013-10-14 11:22:00,
2013-10-14 04:37:00,53.3,37.0,29.70,WNW,300,0.0,-999.0,55,-99.99,,,0.00,weatherlink.com 1.10,2013-10-14 11:37:00,
2013-10-14 04:52:00,56.3,37.0,29.69,ESE,110,2.0,-999.0,48,-99.99,,,0.00,weatherlink.com 1.10,2013-10-14 11:52:00,
2013-10-14 05:07:00,57.6,36.0,29.69,ESE,110,1.0,-999.0,45,-99.99,,,0.00,weatherlink.com 1.10,2013-10-14 12:07:00,
2013-10-14 05:22:00,57.8,36.0,29.70,ESE,110,4.0,-999.0,45,-99.99,,,0.00,weatherlink.com 1.10,2013-10-14 12:22:00,
2013-10-14 05:37:00,58.9,36.0,29.70,NE,44,2.0,-999.0,43,-99.99,,,0.00,weatherlink.com 1.10,2013-10-14 12:37:00,
2013-10-14 05:52:00,58.7,37.0,29.70,SE,130,2.0,-999.0,44,-99.99,,,0.00,weatherlink.com 1.10,2013-10-14 12:52:00,
2013-10-14 06:07:00,58.1,37.0,29.71,ESE,115,1.0,-999.0,45,-99.99,,,0.00,weatherlink.com 1.10,2013-10-14 13:07:00,
2013-10-14 06:22:00,58.1,37.0,29.72,NNE,13,2.0,-999.0,45,-99.99,,,0.00,weatherlink.com 1.10,2013-10-14 13:22:00,
2013-10-14 06:37:00,58.0,37.0,29.72,NE,35,0.0,-999.0,45,-99.99,,,0.00,weatherlink.com 1.10,2013-10-14 13:37:00,
2013-10-14 06:52:00,58.1,37.0,29.72,North,7,0.0,-999.0,45,-99.99,,,0.00,weatherlink.com 1.10,2013-10-14 13:52:00,
2013-10-14 07:07:00,58.3,36.0,29.73,NNE,18,3.0,-999.0,44,-99.99,,,0.00,weatherlink.com 1.10,2013-10-14 14:07:00,
2013-10-14 07:22:00,58.3,36.0,29.74,East,92,2.0,-999.0,44,-99.99,,,0.00,weatherlink.com 1.10,2013-10-14 14:22:00,
2013-10-14 07:37:00,58.0,37.0,29.75,East,92,0.0,-999.0,45,-99.99,,,0.00,weatherlink.com 1.10,2013-10-14 14:37:00,
2013-10-14 07:52:00,58.1,37.0,29.75,East,92,0.0,-999.0,45,-99.99,,,0.00,weatherlink.com 1.10,2013-10-14 14:52:00,
2013-10-14 08:07:00,59.0,36.0,29.75,East,88,5.0,-999.0,42,-99.99,,,0.00,weatherlink.com 1.10,2013-10-14 15:07:00,
2013-10-14 08:22:00,61.3,35.0,29.75,East,84,0.0,-999.0,38,-99.99,,,0.00,weatherlink.com 1.10,2013-10-14 15:22:00,
2013-10-14 08:38:00,62.9,34.0,29.74,NNW,336,6.0,-999.0,34,-99.99,,,0.00,weatherlink.com 1.10,2013-10-14 15:38:00,
2013-10-14 08:53:00,63.9,33.0,29.75,ESE,121,2.0,-999.0,31,-99.99,,,0.00,weatherlink.com 1.10,2013-10-14 15:53:00,
2013-10-14 09:08:00,64.7,32.0,29.75,SSE,149,8.0,-999.0,30,-99.99,,,0.00,weatherlink.com 1.10,2013-10-14 16:08:00,
2013-10-14 09:23:00,65.5,31.0,29.74,NE,41,2.0,-999.0,28,-99.99,,,0.00,weatherlink.com 1.10,2013-10-14 16:23:00,
2013-10-14 09:38:00,66.6,31.0,29.74,ENE,77,13.0,-999.0,26,-99.99,,,0.00,weatherlink.com 1.10,2013-10-14 16:38:00,
2013-10-14 09:53:00,67.4,30.0,29.74,ENE,61,14.0,-999.0,25,-99.99,,,0.00,weatherlink.com 1.10,2013-10-14 16:53:00,
2013-10-14 10:08:00,68.4,30.0,29.74,ESE,116,10.0,-999.0,24,-99.99,,,0.00,weatherlink.com 1.10,2013-10-14 17:08:00,
2013-10-14 10:23:00,69.1,30.0,29.74,ESE,108,12.0,-999.0,23,-99.99,,,0.00,weatherlink.com 1.10,2013-10-14 17:23:00,
2013-10-14 10:38:00,69.9,29.0,29.74,NW,323,3.0,-999.0,22,-99.99,,,0.00,weatherlink.com 1.10,2013-10-14 17:38:00,
2013-10-14 10:53:00,69.8,29.0,29.74,East,84,12.0,-999.0,22,-99.99,,,0.00,weatherlink.com 1.10,2013-10-14 17:53:00,
2013-10-14 11:08:00,70.6,30.0,29.74,SE,134,5.0,-999.0,22,-99.99,,,0.00,weatherlink.com 1.10,2013-10-14 18:08:00,
2013-10-14 11:23:00,71.3,30.0,29.73,ENE,77,18.0,-999.0,22,-99.99,,,0.00,weatherlink.com 1.10,2013-10-14 18:23:00,
2013-10-14 11:38:00,71.5,29.0,29.73,ESE,115,0.0,-999.0,21,-99.99,,,0.00,weatherlink.com 1.10,2013-10-14 18:38:00,
2013-10-14 11:53:00,72.0,30.0,29.72,ESE,115,0.0,-999.0,21,-99.99,,,0.00,weatherlink.com 1.10,2013-10-14 18:53:00,
2013-10-14 12:08:00,72.3,30.0,29.72,East,80,14.0,-999.0,21,-99.99,,,0.00,weatherlink.com 1.10,2013-10-14 19:08:00,
2013-10-14 12:23:00,72.7,30.0,29.72,SE,129,4.0,-999.0,21,-99.99,,,0.00,weatherlink.com 1.10,2013-10-14 19:23:00,
2013-10-14 12:38:00,72.8,31.0,29.71,East,97,12.0,-999.0,21,-99.99,,,0.00,weatherlink.com 1.10,2013-10-14 19:38:00,
2013-10-14 12:53:00,73.3,31.0,29.70,South,182,6.0,-999.0,21,-99.99,,,0.00,weatherlink.com 1.10,2013-10-14 19:53:00,
2013-10-14 13:08:00,74.0,30.0,29.69,ENE,65,10.0,-999.0,20,-99.99,,,0.00,weatherlink.com 1.10,2013-10-14 20:08:00,
2013-10-14 13:23:00,74.4,29.0,29.69,East,99,9.0,-999.0,19,-99.99,,,0.00,weatherlink.com 1.10,2013-10-14 20:23:00,
2013-10-14 13:39:00,75.1,29.0,29.68,NNE,30,9.0,-999.0,18,-99.99,,,0.00,weatherlink.com 1.10,2013-10-14 20:39:00,
2013-10-14 13:54:00,75.1,27.0,29.67,East,98,6.0,-999.0,17,-99.99,,,0.00,weatherlink.com 1.10,2013-10-14 20:54:00,
2013-10-14 14:09:00,75.6,28.0,29.66,East,88,13.0,-999.0,17,-99.99,,,0.00,weatherlink.com 1.10,2013-10-14 21:09:00,
2013-10-14 14:24:00,75.8,28.0,29.66,East,79,11.0,-999.0,17,-99.99,,,0.00,weatherlink.com 1.10,2013-10-14 21:24:00,
2013-10-14 14:39:00,76.7,29.0,29.65,East,82,3.0,-999.0,17,-99.99,,,0.00,weatherlink.com 1.10,2013-10-14 21:39:00,
2013-10-14 14:54:00,77.2,28.0,29.65,SSE,160,3.0,-999.0,16,-99.99,,,0.00,weatherlink.com 1.10,2013-10-14 21:54:00,
2013-10-14 15:09:00,77.0,27.0,29.65,ESE,108,9.0,-999.0,16,-99.99,,,0.00,weatherlink.com 1.10,2013-10-14 22:09:00,
2013-10-14 15:24:00,77.0,26.0,29.64,NE,52,16.0,-999.0,15,-99.99,,,0.00,weatherlink.com 1.10,2013-10-14 22:24:00,
2013-10-14 15:39:00,77.6,26.0,29.64,South,188,1.0,-999.0,15,-99.99,,,0.00,weatherlink.com 1.10,2013-10-14 22:39:00,
2013-10-14 15:54:00,77.0,26.0,29.64,NNW,330,9.0,-999.0,15,-99.99,,,0.00,weatherlink.com 1.10,2013-10-14 22:54:00,
2013-10-14 16:09:00,77.7,26.0,29.63,SW,214,0.0,-999.0,15,-99.99,,,0.00,weatherlink.com 1.10,2013-10-14 23:09:00,
2013-10-14 16:24:00,77.0,26.0,29.62,SSE,162,4.0,-999.0,15,-99.99,,,0.00,weatherlink.com 1.10,2013-10-14 23:24:00,
2013-10-14 16:39:00,77.2,26.0,29.61,NE,47,9.0,-999.0,15,-99.99,,,0.00,weatherlink.com 1.10,2013-10-14 23:39:00,
2013-10-14 16:54:00,76.5,25.0,29.61,ESE,108,6.0,-999.0,15,-99.99,,,0.00,weatherlink.com 1.10,2013-10-14 23:54:00,
2013-10-14 17:09:00,76.7,24.0,29.61,WSW,242,3.0,-999.0,14,-99.99,,,0.00,weatherlink.com 1.10,2013-10-15 00:09:00,
2013-10-14 17:24:00,75.8,25.0,29.61,ESE,108,10.0,-999.0,15,-99.99,,,0.00,weatherlink.com 1.10,2013-10-15 00:24:00,
2013-10-14 17:39:00,75.4,25.0,29.61,NE,53,10.0,-999.0,15,-99.99,,,0.00,weatherlink.com 1.10,2013-10-15 00:39:00,
2013-10-14 17:54:00,74.9,24.0,29.62,East,97,4.0,-999.0,15,-99.99,,,0.00,weatherlink.com 1.10,2013-10-15 00:54:00,
2013-10-14 18:09:00,74.6,24.0,29.62,East,98,6.0,-999.0,15,-99.99,,,0.00,weatherlink.com 1.10,2013-10-15 01:09:00,
2013-10-14 18:24:00,73.9,25.0,29.63,East,101,3.0,-999.0,16,-99.99,,,0.00,weatherlink.com 1.10,2013-10-15 01:24:00,
2013-10-14 18:39:00,73.0,24.0,29.63,East,86,2.0,-999.0,16,-99.99,,,0.00,weatherlink.com 1.10,2013-10-15 01:39:00,
2013-10-14 18:54:00,72.7,24.0,29.63,East,98,6.0,-999.0,16,-99.99,,,0.00,weatherlink.com 1.10,2013-10-15 01:54:00,
2013-10-14 19:09:00,71.6,24.0,29.63,ENE,73,1.0,-999.0,17,-99.99,,,0.00,weatherlink.com 1.10,2013-10-15 02:09:00,
2013-10-14 19:24:00,71.1,24.0,29.64,ENE,73,3.0,-999.0,17,-99.99,,,0.00,weatherlink.com 1.10,2013-10-15 02:24:00,
2013-10-14 19:39:00,68.9,26.0,29.64,ENE,73,3.0,-999.0,20,-99.99,,,0.00,weatherlink.com 1.10,2013-10-15 02:39:00,
2013-10-14 19:54:00,69.3,25.0,29.65,ENE,73,3.0,-999.0,19,-99.99,,,0.00,weatherlink.com 1.10,2013-10-15 02:54:00,
2013-10-14 20:09:00,69.4,24.0,29.65,ENE,75,2.0,-999.0,18,-99.99,,,0.00,weatherlink.com 1.10,2013-10-15 03:09:00,
2013-10-14 20:24:00,69.4,25.0,29.64,ESE,118,1.0,-999.0,19,-99.99,,,0.00,weatherlink.com 1.10,2013-10-15 03:24:00,
2013-10-14 20:39:00,68.4,26.0,29.65,ESE,117,3.0,-999.0,20,-99.99,,,0.00,weatherlink.com 1.10,2013-10-15 03:39:00,
2013-10-14 20:54:00,69.3,25.0,29.66,ESE,104,2.0,-999.0,19,-99.99,,,0.00,weatherlink.com 1.10,2013-10-15 03:54:00,
2013-10-14 21:09:00,68.6,26.0,29.66,ESE,104,2.0,-999.0,20,-99.99,,,0.00,weatherlink.com 1.10,2013-10-15 04:09:00,
2013-10-14 21:24:00,67.8,26.0,29.66,ESE,104,0.0,-999.0,21,-99.99,,,0.00,weatherlink.com 1.10,2013-10-15 04:24:00,
2013-10-14 21:39:00,66.8,27.0,29.66,ESE,104,0.0,-999.0,22,-99.99,,,0.00,weatherlink.com 1.10,2013-10-15 04:39:00,
2013-10-14 21:54:00,65.5,29.0,29.66,ESE,104,0.0,-999.0,25,-99.99,,,0.00,weatherlink.com 1.10,2013-10-15 04:54:00,
2013-10-14 22:09:00,62.9,28.0,29.67,ESE,104,2.0,-999.0,27,-99.99,,,0.00,weatherlink.com 1.10,2013-10-15 05:09:00,
2013-10-14 22:24:00,65.6,27.0,29.66,ESE,108,4.0,-999.0,23,-99.99,,,0.00,weatherlink.com 1.10,2013-10-15 05:24:00,
2013-10-14 22:39:00,66.3,26.0,29.66,ESE,116,3.0,-999.0,22,-99.99,,,0.00,weatherlink.com 1.10,2013-10-15 05:39:00,
2013-10-14 22:54:00,65.5,26.0,29.67,ESE,115,0.0,-999.0,22,-99.99,,,0.00,weatherlink.com 1.10,2013-10-15 05:54:00,
2013-10-14 23:09:00,65.2,25.0,29.67,ESE,115,0.0,-999.0,22,-99.99,,,0.00,weatherlink.com 1.10,2013-10-15 06:09:00,
2013-10-14 23:24:00,65.3,24.0,29.67,ESE,115,0.0,-999.0,21,-99.99,,,0.00,weatherlink.com 1.10,2013-10-15 06:24:00,
2013-10-14 23:39:00,65.5,24.0,29.66,ESE,115,0.0,-999.0,21,-99.99,,,0.00,weatherlink.com 1.10,2013-10-15 06:39:00,
2013-10-14 23:54:00,64.2,25.0,29.67,ESE,115,0.0,-999.0,23,-99.99,,,0.00,weatherlink.com 1.10,2013-10-15 06:54:00,